Temp
7 7 7 7 6 6 5 5 5 4 4 4 4 4 4 4 3 3 2 2 2 2 2 2 2 2 2 2 2 2 3 3 3 3 3 3 3 2 2 3 2 2 3
7 7 7 7 6 5 4 5 5 4 4 4 4 3 4 4 3 3 2 2 2 2 2 2 2 2 2 2 2 2 3 2 3 3 3 3 3 3 3 3 2 3 3
8 7 7 6 5 5 4 5 4 4 4 4 4 4 4 4 4 3 3 3 3 3 2 2 2 2 3 3 3 2 2 3 3 3 3 3 3 4 3 3 2 2 1
8 7 6 5 4 4 4 5 4 4 4 4 4 4 4 4 3 3 3 3 3 2 3 2 2 3 3 3 2 3 3 3 3 3 3 3 3 3 3 2 1 1 0
7 4 5 5 5 4 4 4 4 4 4 4 4 4 4 4 3 3 3 3 3 3 3 2 2 2 2 2 2 2 2 3 3 3 3 3 2 2 2 1 0 1 1
3 4 5 5 5 5 5 5 4 4 4 4 4 4 4 4 4 3 3 3 3 2 2 2 2 2 2 1 1 2 2 2 2 3 3 3 2 1 1 1 1 1 0
4 4 5 5 5 5 5 5 4 4 4 4 4 4 4 4 4 3 3 3 3 3 3 2 2 2 2 2 2 2 2 2 2 2 2 2 2 1 1 0 1 1 1
4 4 4 5 5 5 5 4 4 4 4 4 4 4 4 4 4 4 3 3 3 3 3 3 3 2 2 2 2 2 2 2 2 1 1 2 1 1 1 1 1 -0 2
4 4 4 5 5 5 5 4 4 4 4 4 4 4 4 4 4 4 4 3 3 3 3 3 3 2 2 2 3 2 1 2 1 1 1 1 1 1 1 1 1 1 1
5 4 4 5 5 5 5 4 4 3 4 3 3 4 4 4 4 4 4 3 3 3 3 3 3 2 1 1 2 1 1 1 1 1 1 1 1 1 1 1 1 1 2
5 5 5 5 5 5 4 3 3 3 3 3 4 4 4 4 4 4 4 3 3 3 3 3 3 2 2 2 1 1 1 1 1 1 1 1 2 2 1 1 1 2 2
5 5 5 5 5 5 4 3 3 3 3 3 4 4 4 4 4 4 4 4 3 3 3 3 3 2 2 2 2 2 2 1 2 2 1 1 1 2 2 2 2 2 2
6 5 5 5 5 5 4 4 4 3 3 3 4 4 4 4 4 4 4 3 3 3 3 3 3 3 2 2 2 2 1 1 1 2 3 3 2 2 3 2 2 2 2
7 5 5 5 5 5 5 4 4 4 4 3 3 4 4 4 4 4 4 4 4 4 3 3 3 3 2 2 1 2 2 2 3 3 3 3 3 3 3 3 2 2 2
8 7 6 6 6 6 6 5 4 4 3 3 3 4 4 4 4 4 4 4 4 4 4 4 4 4 4 4 4 4 3 3 3 3 3 3 3 3 2 2 2 3 3
8 7 7 6 6 6 6 6 6 6 5 3 4 4 5 5 5 5 5 5 4 4 5 5 5 5 5 5 5 4 4 4 3 3 3 3 3 3 3 3 3 3 3
8 8 7 7 6 6 6 6 6 6 6 4 5 5 5 5 5 5 5 5 5 5 5 6 6 6 5 5 5 5 5 4 4 4 4 4 3 3 3 3 3 3 2
9 8 8 7 7 7 7 7 7 7 6 6 6 6 6 6 6 6 6 6 6 6 6 6 6 6 6 5 5 5 5 5 4 4 4 4 3 3 3 3 3 2 2
9 9 8 8 8 8 7 8 8 7 7 7 6 7 6 6 6 6 6 5 5 6 6 6 6 6 6 6 6 5 5 5 4 4 4 4 4 3 3 3 3 3 2
9 9 8 8 8 8 8 8 8 8 8 8 7 7 7 7 7 7 7 6 7 6 6 6 6 6 6 6 6 5 5 5 5 5 5 5 4 4 4 4 4 3 3
8 8 9 8 8 8 8 8 8 8 8 8 8 7 7 7 7 7 7 7 7 7 7 7 7 7 6 6 6 6 6 6 5 5 6 6 6 6 5 5 5 4 4
8 8 8 9 8 8 8 8 9 8 8 8 8 8 7 8 8 8 8 7 7 7 7 7 7 7 7 7 7 6 6 6 6 6 6 6 6 6 5 5 5 4 4
8 8 8 7 7 8 8 8 9 9 9 8 8 7 8 8 8 8 8 8 8 7 7 7 7 7 7 7 7 7 7 7 7 6 6 5 5 5 4 4 4 4 4
8 8 8 8 7 7 7 7 8 8 9 9 8 8 8 8 8 8 8 8 8 8 8 8 8 8 8 7 8 7 7 7 7 7 6 6 6 6 5 5 5 4 4
8 8 8 8 8 7 7 6 7 7 7 8 8 9 8 8 8 8 8 8 8 8 8 8 8 8 8 8 7 8 7 7 7 7 7 6 6 6 5 5 5 5 4
7 7 7 7 8 7 7 7 7 6 6 7 7 8 8 8 8 8 8 8 8 8 8 8 8 8 8 8 8 8 7 7 7 7 6 6 6 6 5 5 5 5 4
Height
3044 3044 3044 3044 3046 3047 3048 3048 3049 3048 3048 3049 3049 3048 3049 3049 3048 3047 3046 3044 3041 3042 3044 3045 3046 3048 3049 3051 3053 3056 3060 3063 3066 3069 3072 3075 3079 3081 3079 3087 3094 3098 3102
3040 3040 3041 3042 3044 3044 3045 3045 3046 3047 3047 3048 3048 3048 3049 3048 3048 3046 3044 3040 3039 3040 3041 3043 3045 3048 3050 3052 3055 3057 3059 3062 3065 3068 3071 3075 3078 3081 3084 3088 3093 3097 3101
3038 3038 3038 3040 3041 3042 3043 3044 3045 3045 3046 3047 3047 3048 3048 3048 3047 3046 3043 3040 3037 3038 3039 3041 3044 3046 3048 3050 3053 3056 3058 3061 3064 3069 3072 3075 3079 3082 3084 3089 3089 3098 3103
3036 3037 3037 3039 3040 3041 3042 3043 3044 3044 3045 3046 3047 3048 3048 3047 3047 3045 3042 3039 3039 3038 3039 3041 3043 3044 3047 3050 3052 3054 3058 3061 3064 3068 3072 3075 3078 3081 3085 3091 3095 3100 3104
3035 3035 3036 3038 3039 3040 3041 3042 3043 3044 3045 3046 3047 3047 3047 3048 3048 3047 3044 3041 3039 3039 3039 3040 3042 3044 3044 3047 3051 3054 3057 3061 3065 3069 3072 3075 3078 3082 3087 3091 3094 3102 3108
3035 3036 3036 3037 3038 3038 3040 3041 3042 3044 3045 3046 3047 3048 3048 3049 3049 3048 3045 3043 3042 3042 3042 3042 3043 3044 3044 3045 3048 3052 3058 3062 3066 3070 3073 3076 3080 3085 3090 3094 3099 3105 3109
3035 3036 3037 3038 3038 3039 3040 3041 3042 3044 3045 3047 3047 3048 3049 3050 3050 3049 3047 3046 3045 3045 3046 3047 3046 3045 3044 3045 3045 3050 3057 3063 3067 3071 3074 3077 3083 3089 3093 3097 3103 3110 3116
3034 3036 3038 3039 3039 3040 3041 3042 3043 3044 3046 3047 3048 3049 3050 3051 3051 3051 3050 3049 3048 3048 3048 3049 3049 3049 3047 3049 3050 3051 3057 3063 3067 3070 3078 3083 3089 3093 3099 3104 3109 3113 3120
3034 3038 3038 3040 3040 3041 3042 3043 3044 3045 3046 3047 3049 3049 3050 3051 3052 3052 3052 3052 3051 3050 3051 3051 3052 3054 3053 3054 3056 3055 3058 3063 3070 3076 3082 3089 3093 3099 3103 3108 3112 3117 3122
3035 3038 3039 3041 3041 3042 3042 3043 3045 3046 3047 3048 3049 3050 3050 3051 3052 3054 3055 3055 3054 3053 3053 3054 3056 3058 3059 3060 3063 3064 3065 3070 3075 3080 3086 3092 3097 3102 3108 3113 3119 3123 3126
3035 3038 3040 3041 3042 3042 3043 3044 3045 3046 3048 3049 3049 3050 3051 3052 3053 3055 3056 3057 3057 3057 3057 3058 3059 3061 3063 3065 3068 3072 3074 3077 3082 3087 3092 3097 3102 3108 3111 3115 3120 3126 3130
3036 3038 3040 3042 3042 3043 3044 3044 3045 3047 3048 3048 3048 3049 3052 3053 3054 3056 3057 3058 3058 3059 3060 3062 3063 3064 3068 3070 3074 3078 3082 3085 3087 3091 3096 3100 3105 3110 3114 3118 3123 3126 3127
3036 3039 3041 3042 3043 3045 3045 3046 3046 3048 3048 3048 3048 3049 3051 3053 3055 3057 3058 3059 3060 3061 3062 3064 3066 3068 3071 3074 3078 3082 3086 3089 3093 3097 3101 3106 3110 3113 3116 3121 3124 3128 3131
3036 3039 3041 3043 3045 3046 3046 3047 3049 3049 3050 3050 3050 3051 3053 3055 3057 3058 3059 3060 3062 3063 3065 3066 3069 3072 3074 3078 3080 3084 3089 3094 3098 3102 3105 3109 3112 3116 3119 3123 3126 3129 3131
3038 3040 3041 3043 3045 3047 3047 3048 3050 3050 3051 3051 3052 3053 3055 3058 3059 3059 3060 3063 3065 3068 3070 3071 3073 3076 3079 3081 3084 3088 3092 3096 3100 3104 3108 3112 3115 3118 3121 3124 3126 3129 3131
3038 3040 3043 3044 3045 3047 3049 3049 3051 3051 3051 3052 3053 3056 3058 3059 3061 3062 3064 3066 3070 3073 3075 3077 3079 3082 3085 3086 3089 3091 3094 3098 3102 3106 3109 3113 3117 3119 3122 3124 3126 3128 3129
3038 3040 3043 3045 3047 3048 3050 3051 3053 3054 3053 3055 3057 3059 3062 3063 3065 3066 3068 3070 3072 3075 3077 3080 3083 3085 3087 3090 3093 3096 3099 3101 3104 3107 3111 3114 3116 3118 3120 3122 3125 3127 3128
3039 3041 3043 3045 3048 3049 3051 3052 3054 3055 3056 3058 3060 3061 3064 3066 3068 3070 3072 3074 3076 3078 3080 3082 3085 3087 3089 3091 3094 3097 3099 3101 3104 3107 3110 3112 3114 3116 3118 3120 3121 3122 3123
3039 3040 3042 3044 3046 3049 3051 3052 3054 3056 3057 3059 3061 3063 3065 3067 3069 3071 3074 3077 3079 3081 3083 3085 3087 3089 3091 3093 3095 3097 3099 3101 3103 3106 3108 3110 3112 3113 3114 3116 3117 3118 3118
3036 3039 3041 3043 3045 3047 3049 3051 3053 3055 3057 3059 3061 3063 3066 3067 3069 3072 3074 3075 3077 3080 3082 3084 3087 3088 3090 3092 3094 3096 3097 3098 3100 3102 3105 3107 3108 3109 3110 3111 3111 3110 3110
3035 3037 3039 3041 3043 3045 3048 3050 3052 3053 3056 3058 3060 3062 3064 3066 3069 3071 3072 3074 3076 3078 3080 3082 3084 3086 3088 3089 3091 3093 3095 3096 3098 3099 3100 3101 3102 3104 3105 3105 3105 3104 3104
3033 3036 3037 3039 3041 3043 3046 3048 3050 3051 3054 3056 3058 3059 3061 3063 3065 3067 3069 3071 3073 3075 3077 3079 3080 3082 3084 3086 3087 3089 3091 3092 3093 3095 3096 3096 3097 3097 3097 3097 3097 3097 3096
3028 3032 3034 3037 3039 3041 3043 3045 3047 3048 3050 3052 3054 3056 3057 3059 3062 3063 3065 3068 3070 3072 3073 3074 3076 3078 3079 3081 3083 3084 3084 3086 3088 3089 3089 3090 3091 3091 3091 3090 3090 3089 3088
3023 3026 3028 3031 3034 3037 3040 3042 3044 3046 3047 3048 3050 3052 3053 3054 3056 3058 3061 3063 3064 3066 3068 3069 3071 3073 3074 3075 3076 3077 3078 3080 3081 3082 3082 3082 3082 3083 3083 3082 3082 3082 3081
3015 3018 3022 3024 3027 3030 3034 3037 3040 3042 3043 3044 3045 3046 3049 3050 3051 3053 3055 3057 3058 3060 3062 3064 3065 3067 3068 3069 3070 3071 3071 3072 3073 3074 3074 3074 3074 3074 3074 3074 3074 3073 3072
3009 3011 3013 3017 3022 3025 3028 3029 3032 3035 3037 3039 3040 3042 3044 3046 3048 3050 3052 3053 3054 3055 3056 3058 3059 3060 3061 3062 3063 3064 3064 3065 3065 3065 3065 3065 3065 3066 3065 3065 3064 3064 3063
Wind_Speed
9 10 10 11 9 11 11 9 6 7 8 7 6 4 3 6 6 6 6 3 6 10 11 12 12 9 8 8 7 13 16 15 16 16 16 19 20 20 29 15 17 16 18
9 9 10 8 8 8 6 4 6 10 9 7 5 4 3 2 2 5 6 8 9 9 12 13 15 13 12 12 11 15 14 13 15 16 17 16 19 23 18 16 22 21 17
8 9 6 5 6 5 4 4 9 10 8 8 6 6 4 1 2 3 7 10 7 4 11 13 13 15 13 9 13 19 18 17 17 18 16 18 20 19 16 13 18 24 31
7 6 6 7 6 5 4 7 11 9 7 7 6 6 6 1 3 5 6 5 4 5 8 11 10 14 16 18 13 20 21 18 19 17 19 23 19 17 21 23 31 34 31
6 4 4 3 6 6 6 10 12 9 8 8 7 6 5 2 3 0 6 8 3 3 5 11 13 13 12 19 19 21 21 20 20 20 16 20 19 22 35 35 34 27 31
10 5 1 1 2 4 8 12 10 9 9 8 9 6 5 3 2 6 5 6 7 11 11 12 10 7 5 12 21 25 23 21 19 17 12 17 34 32 29 23 32 30 30
11 7 4 4 3 5 9 10 10 8 8 10 10 8 7 4 3 6 6 6 11 13 11 9 4 3 5 11 17 27 25 20 14 11 12 29 31 28 29 30 32 26 28
11 8 6 5 5 6 8 9 8 8 8 9 9 7 6 4 4 6 7 7 9 10 10 6 8 8 11 16 19 24 25 26 26 23 20 36 25 24 27 23 27 33 31
12 10 5 3 3 5 8 9 10 9 9 9 8 6 5 6 5 7 8 8 8 8 10 9 11 12 17 16 21 29 25 24 31 33 34 30 30 27 26 28 34 32 26
14 8 4 2 2 4 6 8 7 8 8 7 6 5 7 8 6 7 8 7 8 9 12 15 15 18 21 20 28 33 38 37 34 29 35 31 26 27 31 29 27 21 20
14 9 5 5 5 5 6 6 7 6 7 9 8 7 8 8 7 8 9 9 10 8 10 13 21 19 19 19 20 31 33 34 31 33 30 31 27 25 29 27 22 23 20
14 9 7 6 6 7 7 7 10 8 6 7 8 9 12 9 6 9 10 8 11 10 11 17 18 19 23 22 30 25 29 27 26 27 30 30 31 28 25 26 26 25 24
16 12 9 6 6 7 8 8 7 5 7 7 6 8 13 10 8 9 11 8 10 14 13 18 20 19 22 25 29 24 17 20 25 25 30 31 29 25 26 26 24 18 15
15 13 10 8 7 7 7 8 6 4 4 6 6 8 12 11 10 10 8 10 17 18 15 21 20 21 23 24 22 23 27 24 26 26 24 25 25 24 22 20 15 16 12
13 13 11 9 7 6 6 7 5 8 8 7 7 12 15 10 10 11 15 17 18 19 19 21 22 21 26 27 30 31 31 27 25 25 24 23 22 20 18 16 15 12 10
13 12 11 10 8 6 6 7 5 7 11 12 14 15 13 13 11 15 20 20 20 18 18 18 20 21 23 25 25 25 25 25 24 24 23 22 20 17 14 12 11 10 8
12 12 10 10 8 7 6 7 8 10 15 14 15 16 14 14 14 16 17 19 19 17 16 17 18 18 20 20 19 19 18 19 20 21 20 19 18 17 15 12 11 11 10
12 12 11 8 8 8 7 9 10 12 13 12 13 14 14 13 15 15 15 15 14 15 16 16 16 17 18 18 17 17 17 16 16 17 17 17 17 16 15 14 14 13 13
13 13 11 11 9 9 8 8 10 12 13 14 13 12 12 14 15 16 15 14 13 12 12 13 14 15 15 16 18 18 17 15 15 14 15 16 18 19 17 17 17 18 19
13 14 12 11 11 11 11 10 10 11 14 15 14 13 13 12 11 10 11 12 13 13 13 13 12 12 11 12 15 16 17 17 17 16 15 16 17 17 16 17 18 19 18
8 13 15 13 11 10 10 12 13 12 12 13 14 15 14 14 13 13 13 12 12 12 11 11 11 11 12 12 11 11 12 14 14 13 13 12 13 14 14 16 17 19 21
14 11 10 11 12 13 12 12 12 13 14 15 16 17 18 19 19 18 18 17 16 15 15 15 14 13 12 12 13 14 13 13 14 14 15 16 17 18 19 21 21 23 24
20 19 15 9 9 9 11 13 14 13 12 13 17 19 20 20 20 21 21 20 21 20 20 20 19 17 16 16 17 18 18 16 15 17 19 20 22 23 24 24 25 25 26
25 25 24 20 13 9 11 14 15 15 13 13 14 17 20 21 21 21 21 22 23 22 23 22 21 20 20 20 19 20 19 18 18 19 21 21 22 23 24 25 26 26 27
30 29 29 28 26 23 19 15 15 17 18 16 15 15 14 16 18 19 20 21 21 22 21 20 19 18 19 20 21 21 22 22 22 22 23 24 24 25 27 27 27 28 28
33 33 33 32 32 30 28 26 22 18 20 21 20 20 18 17 17 17 18 18 19 19 19 20 19 20 20 20 19 20 21 23 24 25 26 27 27 27 29 29 30 30 29
Wind_Direction
239 237 250 264 258 244 238 245 238 222 227 208 210 209 257 275 284 272 308 295 260 231 231 192 200 200 197 180 194 195 181 174 180 189 190 189 190 187 191 177 193 182 180
233 245 259 245 212 215 224 236 206 205 200 187 184 219 228 266 314 329 303 291 279 235 216 208 205 198 195 193 181 162 178 183 185 183 179 176 183 184 180 177 180 175 194
239 263 234 183 183 189 201 213 198 196 170 174 182 205 150 192 306 330 328 334 321 225 207 205 208 206 195 197 190 186 200 189 183 179 195 185 177 181 176 212 169 170 153
253 198 154 170 187 209 204 204 199 178 164 167 173 173 142 101 341 344 332 337 18 195 190 201 190 189 193 188 188 178 178 172 172 166 178 158 170 178 182 175 150 152 164
174 120 152 203 212 217 198 194 195 168 160 160 159 164 150 128 82 102 26 26 52 141 164 178 176 183 192 196 187 178 181 184 178 157 152 184 165 168 163 156 163 154 142
149 191 180 129 206 196 180 185 185 164 164 158 157 168 169 163 68 11 52 44 95 115 126 140 151 153 139 197 194 181 178 172 173 181 190 175 170 167 164 174 154 156 154
178 198 113 106 116 149 170 175 182 166 160 162 167 170 178 149 81 21 73 75 98 122 121 149 128 72 95 129 136 177 187 186 204 214 194 164 164 162 156 148 149 151 144
176 136 129 131 121 151 152 157 165 157 157 169 178 182 180 151 97 56 94 103 124 130 140 142 114 75 122 139 134 140 140 129 133 130 152 152 150 151 143 142 149 143 146
150 125 125 129 132 174 160 157 155 147 153 162 179 189 188 161 132 105 101 113 95 121 148 137 123 117 112 137 135 132 152 151 141 150 149 145 141 148 149 147 146 149 151
150 139 148 112 126 177 149 163 167 160 153 163 183 181 178 166 148 134 131 120 103 109 128 131 130 130 118 117 134 125 132 139 136 137 153 144 144 152 151 146 147 151 156
144 149 154 103 130 122 139 159 163 179 180 199 225 193 176 168 161 155 151 142 128 120 139 134 142 134 132 132 134 138 132 135 141 148 152 154 146 153 150 155 158 153 149
136 135 141 136 119 117 121 132 126 128 154 192 199 195 192 186 172 159 154 140 145 148 148 140 130 138 139 131 141 140 146 148 150 150 157 162 155 156 153 151 151 157 163
140 144 142 137 124 122 133 131 129 136 131 105 129 167 179 188 173 170 162 162 158 149 148 148 143 138 150 148 144 146 150 148 157 144 143 146 148 154 154 159 163 167 165
150 152 147 139 144 151 150 146 162 158 131 116 113 128 162 168 154 153 167 167 156 142 138 150 156 151 150 158 153 151 146 140 140 145 145 149 155 157 158 159 161 170 163
150 150 148 150 159 153 154 144 177 180 147 105 127 141 140 146 147 139 138 146 149 138 130 131 137 140 147 140 139 141 146 151 153 157 159 160 158 159 165 171 171 172 170
159 156 154 157 167 166 148 122 118 122 123 116 116 142 149 147 149 141 137 144 149 140 133 133 137 139 145 150 152 154 155 159 163 165 168 167 165 169 170 170 176 178 186
167 161 163 173 177 182 170 138 136 123 114 119 127 142 145 146 151 148 145 151 153 150 146 143 146 150 153 157 161 161 164 166 170 174 177 176 180 184 193 201 208 214 226
178 169 164 167 179 191 189 175 160 140 132 134 137 144 155 158 162 168 169 169 166 163 160 160 162 165 165 165 166 167 175 176 178 187 196 199 205 209 215 222 233 244 256
201 190 181 177 178 183 198 197 179 170 161 159 158 154 159 169 175 179 182 178 182 178 177 175 176 178 179 181 180 185 190 192 196 197 200 206 214 225 231 241 246 248 253
213 205 203 202 199 201 200 205 204 198 187 181 177 178 185 185 182 182 180 183 180 179 179 180 181 183 190 197 199 202 207 210 213 218 219 219 223 231 236 243 253 262 268
220 217 208 213 217 213 216 209 207 210 214 209 203 199 200 203 205 204 204 201 198 196 195 196 197 196 199 204 218 220 219 223 232 241 247 251 249 248 248 251 255 259 263
202 210 226 224 228 236 234 234 217 208 209 216 221 219 217 217 218 217 215 216 217 218 219 221 224 224 228 229 226 226 227 228 230 234 239 247 253 258 261 262 264 267 271
197 202 206 223 244 256 254 246 243 233 223 215 219 224 231 232 232 233 232 230 230 230 231 236 239 242 245 247 248 252 251 248 247 248 246 243 245 248 253 260 264 266 269
219 205 205 203 210 236 257 260 261 256 244 235 231 228 231 237 238 240 239 239 241 241 240 242 247 251 252 254 256 258 258 255 250 250 254 254 255 259 261 262 264 266 267
226 228 223 218 214 215 224 244 259 261 258 254 250 243 233 237 236 232 234 235 236 238 243 246 246 248 250 252 254 257 259 257 256 255 254 255 255 257 261 263 262 263 264
238 236 239 237 233 231 228 225 228 245 260 260 256 254 255 237 226 226 225 228 230 231 233 236 240 244 246 246 246 248 249 250 250 251 252 253 255 258 261 262 263 263 265